| time (UTC) | temp F | wind direction | speed MPH | gust MPH | rain 1hr in | rain 24hr in | rain mn in | humidity % | barometer mb |
| 20260510084505 | 69 | 134 | 0.0 | 0.0 | 0.00 | 0.42 | 0.02 | 96 | 1012.9 |
| 20260510083049 | 69 | 134 | 0.0 | 0.0 | 0.02 | 0.42 | 0.02 | 96 | 1013.0 |
| 20260510081522 | 69 | 134 | 0.0 | 2.0 | 0.02 | 0.42 | 0.02 | 96 | 1012.7 |
| 20260510080044 | 69 | 134 | 0.0 | 0.0 | 0.02 | 0.42 | 0.02 | 96 | 1013.0 |
| 20260510074507 | 69 | 134 | 0.0 | 2.0 | 0.02 | 0.42 | 0.02 | 96 | 1012.9 |
| 20260510073044 | 68 | 134 | 1.0 | 2.0 | 0.00 | 0.40 | 0.00 | 96 | 1012.5 |
| 20260510071510 | 68 | 134 | 0.0 | 2.0 | 0.00 | 0.40 | 0.00 | 96 | 1012.9 |
| 20260510070053 | 68 | 134 | 0.0 | 2.0 | 0.00 | 0.40 | 0.00 | 96 | 1013.0 |
| 20260510064516 | 68 | 134 | 0.0 | 2.0 | 0.00 | 0.40 | 0.00 | 96 | 1012.9 |
| 20260510063048 | 68 | 134 | 0.0 | 2.0 | 0.00 | 0.40 | 0.00 | 96 | 1013.0 |
| 20260510061521 | 68 | 134 | 0.0 | 2.0 | 0.00 | 0.40 | 0.00 | 96 | 1013.2 |
| 20260510060056 | 68 | 134 | 0.0 | 2.0 | 0.00 | 0.40 | 0.00 | 96 | 1013.3 |
| 20260510054524 | 68 | 133 | 1.0 | 6.0 | 0.00 | 0.40 | 0.00 | 96 | 1013.2 |
| 20260510053104 | 68 | 150 | 0.0 | 2.0 | 0.00 | 0.40 | 0.00 | 96 | 1013.3 |
| 20260510051531 | 68 | 151 | 0.0 | 2.0 | 0.00 | 0.40 | 0.00 | 96 | 1013.6 |
| 20260510050110 | 68 | 150 | 0.0 | 2.0 | 0.00 | 0.40 | 0.00 | 96 | 1013.7 |
| 20260510044536 | 68 | 151 | 0.0 | 2.0 | 0.00 | 0.40 | 0.00 | 96 | 1014.0 |
| 20260510043111 | 68 | 150 | 0.0 | 2.0 | 0.00 | 0.40 | 0.00 | 96 | 1014.0 |
| 20260510041542 | 68 | 151 | 0.0 | 2.0 | 0.00 | 0.40 | 0.00 | 96 | 1014.0 |
| 20260510040001 | 68 | 151 | 0.0 | 2.0 | 0.00 | 0.40 | 0.00 | 96 | 1014.0 |
| 20260510034540 | 68 | 148 | 2.0 | 4.0 | 0.00 | 0.40 | 0.40 | 96 | 1014.0 |
| 20260510033004 | 68 | 152 | 0.0 | 0.0 | 0.00 | 0.40 | 0.40 | 96 | 1013.9 |
| 20260510031547 | 68 | 152 | 0.0 | 0.0 | 0.00 | 0.40 | 0.40 | 96 | 1014.0 |
| 20260510030006 | 68 | 152 | 0.0 | 0.0 | 0.00 | 0.40 | 0.40 | 96 | 1013.9 |
| 20260510024549 | 68 | 152 | 0.0 | 0.0 | 0.00 | 0.41 | 0.40 | 95 | 1014.0 |
| 20260510023005 | 69 | 152 | 0.0 | 0.0 | 0.00 | 0.41 | 0.40 | 95 | 1013.6 |
| 20260510021544 | 69 | 152 | 0.0 | 0.0 | 0.00 | 0.41 | 0.40 | 95 | 1013.4 |
| 20260510020018 | 69 | 152 | 0.0 | 0.0 | 0.00 | 0.41 | 0.40 | 95 | 1013.1 |
| 20260510014558 | 69 | 152 | 0.0 | 0.0 | 0.00 | 0.47 | 0.40 | 95 | 1013.2 |
| 20260510013019 | 69 | 152 | 0.0 | 2.0 | 0.00 | 0.47 | 0.40 | 95 | 1013.2 |
| 20260510011606 | 69 | 152 | 0.0 | 2.0 | 0.00 | 0.47 | 0.40 | 95 | 1013.0 |
| 20260510010031 | 69 | 152 | 0.0 | 1.0 | 0.00 | 0.47 | 0.40 | 95 | 1012.9 |
| 20260510004612 | 69 | 152 | 0.0 | 2.0 | 0.00 | 0.59 | 0.40 | 95 | 1012.6 |
| 20260510003100 | 69 | 152 | 0.0 | 2.0 | 0.00 | 0.59 | 0.40 | 94 | 1012.8 |
| 20260510001517 | 69 | 152 | 1.0 | 3.0 | 0.01 | 0.59 | 0.40 | 94 | 1012.6 |
| 20260510000047 | 69 | 153 | 0.0 | 3.0 | 0.05 | 0.59 | 0.40 | 94 | 1012.8 |
| 20260509234527 | 70 | 167 | 0.0 | 2.0 | 0.05 | 0.59 | 0.40 | 94 | 1013.1 |
| 20260509233059 | 70 | 167 | 0.0 | 2.0 | 0.05 | 0.59 | 0.40 | 93 | 1013.2 |
| 20260509231536 | 70 | 264 | 0.0 | 2.0 | 0.04 | 0.57 | 0.39 | 93 | 1013.4 |
| 20260509230110 | 70 | 265 | 1.0 | 3.0 | 0.00 | 0.54 | 0.35 | 92 | 1013.5 |
| 20260509224535 | 70 | 37 | 0.0 | 0.0 | 0.00 | 0.54 | 0.35 | 92 | 1013.3 |
| 20260509223105 | 70 | 37 | 0.0 | 0.0 | 0.00 | 0.54 | 0.35 | 92 | 1013.1 |
| 20260509221530 | 70 | 37 | 0.0 | 0.0 | 0.00 | 0.54 | 0.35 | 91 | 1013.0 |
| 20260509220004 | 70 | 38 | 0.0 | 0.0 | 0.00 | 0.54 | 0.35 | 91 | 1012.9 |
| 20260509214539 | 70 | 38 | 0.0 | 0.0 | 0.00 | 0.54 | 0.35 | 91 | 1012.7 |
| 20260509213011 | 70 | 38 | 0.0 | 2.0 | 0.00 | 0.54 | 0.35 | 91 | 1012.8 |
| 20260509211601 | 70 | 37 | 0.0 | 2.0 | 0.00 | 0.54 | 0.35 | 91 | 1012.7 |
| 20260509210015 | 70 | 28 | 0.0 | 4.0 | 0.00 | 0.54 | 0.35 | 92 | 1012.6 |
| 20260509204545 | 70 | 46 | 0.0 | 4.0 | 0.00 | 0.54 | 0.35 | 92 | 1012.8 |
| 20260509203009 | 69 | 43 | 1.0 | 3.0 | 0.01 | 0.54 | 0.35 | 93 | 1012.6 |
| 20260509201543 | 69 | 46 | 1.0 | 4.0 | 0.01 | 0.54 | 0.35 | 93 | 1012.8 |
| 20260509200009 | 69 | 44 | 1.0 | 6.0 | 0.02 | 0.54 | 0.35 | 93 | 1012.8 |
| 20260509194541 | 69 | 26 | 0.0 | 5.0 | 0.13 | 0.54 | 0.35 | 93 | 1013.2 |
| 20260509193010 | 68 | 33 | 3.0 | 5.0 | 0.28 | 0.53 | 0.34 | 92 | 1013.2 |
| 20260509191554 | 68 | 44 | 2.0 | 9.0 | 0.34 | 0.53 | 0.34 | 91 | 1013.6 |
| 20260509190021 | 71 | 333 | 4.0 | 13.0 | 0.33 | 0.52 | 0.33 | 90 | 1013.3 |
| 20260509184606 | 73 | 290 | 2.0 | 5.0 | 0.22 | 0.41 | 0.22 | 91 | 1013.0 |
| 20260509183042 | 75 | 302 | 0.0 | 2.0 | 0.05 | 0.24 | 0.05 | 86 | 1012.5 |
| 20260509181501 | 77 | 257 | 0.0 | 4.0 | 0.00 | 0.19 | 0.00 | 80 | 1012.6 |
| 20260509180042 | 78 | 254 | 2.0 | 5.0 | 0.00 | 0.19 | 0.00 | 79 | 1012.6 |
| 20260509174508 | 78 | 283 | 2.0 | 4.0 | 0.00 | 0.19 | 0.00 | 79 | 1012.8 |
| 20260509173039 | 77 | 272 | 2.0 | 5.0 | 0.00 | 0.19 | 0.00 | 79 | 1013.1 |
| 20260509171504 | 78 | 282 | 5.0 | 8.0 | 0.00 | 0.19 | 0.00 | 78 | 1013.0 |
| 20260509170038 | 78 | 291 | 2.0 | 6.0 | 0.00 | 0.19 | 0.00 | 79 | 1013.1 |
| 20260509164515 | 77 | 226 | 2.0 | 7.0 | 0.00 | 0.19 | 0.00 | 79 | 1013.2 |
| 20260509163101 | 76 | 233 | 0.0 | 5.0 | 0.00 | 0.19 | 0.00 | 81 | 1013.3 |
| 20260509161520 | 75 | 155 | 0.0 | 5.0 | 0.00 | 0.19 | 0.00 | 81 | 1013.4 |
| 20260509160100 | 74 | 118 | 0.0 | 4.0 | 0.00 | 0.19 | 0.00 | 83 | 1013.2 |
| 20260509154525 | 74 | 155 | 0.0 | 4.0 | 0.00 | 0.19 | 0.00 | 83 | 1013.2 |
| 20260509153104 | 73 | 111 | 0.0 | 4.0 | 0.00 | 0.19 | 0.00 | 84 | 1013.5 |
| 20260509151532 | 73 | 142 | 2.0 | 6.0 | 0.00 | 0.19 | 0.00 | 85 | 1013.1 |
| 20260509150105 | 73 | 96 | 0.0 | 2.0 | 0.00 | 0.19 | 0.00 | 85 | 1013.4 |
| 20260509144534 | 73 | 107 | 0.0 | 2.0 | 0.00 | 0.19 | 0.00 | 85 | 1013.8 |
| 20260509143100 | 73 | 106 | 0.0 | 1.0 | 0.00 | 0.19 | 0.00 | 84 | 1013.4 |
| 20260509141525 | 72 | 111 | 0.0 | 2.0 | 0.00 | 0.19 | 0.00 | 85 | 1013.4 |
| 20260509140059 | 71 | 111 | 0.0 | 2.0 | 0.00 | 0.19 | 0.00 | 87 | 1013.3 |
| 20260509134526 | 70 | 111 | 0.0 | 2.0 | 0.00 | 0.19 | 0.00 | 86 | 1013.1 |
| 20260509133110 | 70 | 92 | 0.0 | 3.0 | 0.00 | 0.19 | 0.00 | 87 | 1013.2 |
| 20260509131531 | 69 | 29 | 0.0 | 3.0 | 0.00 | 0.19 | 0.00 | 89 | 1013.4 |
| 20260509124533 | 68 | 28 | 0.0 | 2.0 | 0.00 | 0.19 | 0.00 | 91 | 1013.2 |
| 20260509123110 | 68 | 28 | 1.0 | 3.0 | 0.00 | 0.19 | 0.00 | 91 | 1013.2 |
| 20260509121538 | 67 | 46 | 0.0 | 3.0 | 0.00 | 0.19 | 0.00 | 91 | 1012.6 |
| 20260509120013 | 67 | 46 | 0.0 | 3.0 | 0.00 | 0.19 | 0.00 | 92 | 1012.8 |
| 20260509114545 | 67 | 48 | 0.0 | 4.0 | 0.00 | 0.19 | 0.00 | 93 | 1012.7 |
| 20260509113007 | 66 | 126 | 0.0 | 1.0 | 0.00 | 0.19 | 0.00 | 93 | 1012.5 |
| 20260509111549 | 66 | 126 | 0.0 | 2.0 | 0.00 | 0.19 | 0.00 | 93 | 1012.1 |
| 20260509110007 | 66 | 126 | 0.0 | 2.0 | 0.00 | 0.19 | 0.00 | 92 | 1011.4 |
| 20260509104551 | 66 | 126 | 0.0 | 2.0 | 0.00 | 0.19 | 0.00 | 92 | 1011.4 |
| 20260509103015 | 66 | 126 | 0.0 | 3.0 | 0.00 | 0.19 | 0.00 | 93 | 1011.2 |
| 20260509101600 | 66 | 147 | 2.0 | 4.0 | 0.00 | 0.19 | 0.00 | 94 | 1010.9 |
| 20260509100026 | 65 | 179 | 1.0 | 5.0 | 0.00 | 0.19 | 0.00 | 94 | 1010.9 |
| 20260509094600 | 65 | 148 | 3.0 | 9.0 | 0.00 | 0.19 | 0.00 | 95 | 1010.8 |
| 20260509093038 | 65 | 150 | 3.0 | 8.0 | 0.00 | 0.19 | 0.00 | 95 | 1010.9 |
| 20260509091555 | 65 | 140 | 0.0 | 0.0 | 0.00 | 0.19 | 0.00 | 95 | 1011.2 |
| 20260509090028 | 64 | 143 | 0.0 | 3.0 | 0.00 | 0.19 | 0.00 | 95 | 1011.4 |